Regional Weather Roundup
Issued by NWS Kansas City/Pleasant Hill, MO

Home | Current Version | Previous Version | Text Only | Print | Product List | Glossary On
Versions: 1 2 3 4 5 6 7 8 9 10 11 12 13 14 15 16 17 18 19 20 21 22 23 24 25 26 27 28 29 30 31 32 33 34 35 36 37 38 39 40 41 42 43 44 45 46 47 48 49 50
011
ASUS43 KEAX 041710
RWREAX

WEATHER ROUNDUP FOR EASTERN KANSAS AND NORTHWEST MISSOURI
NATIONAL WEATHER SERVICE KANSAS CITY/PLEASANT HILL MO
1200 PM CDT WED MAY 04 2016

KSZ040-057-103>105-MOZ028-029-037-043-041800-
...KANSAS CITY METROPOLITAN AREA...

CITY           SKY/WX    TMP DP  RH WIND       PRES   REMARKS
K.C. INTL      SUNNY     66  41  40 NW15G22   30.00R
K.C. DOWNTOWN  SUNNY     68  41  37 N14G22    29.99R
LEES SUMMIT    SUNNY     66  41  40 N18       29.99R
OLATHE - IXD   SUNNY     67  43  41 N15G22    30.01R
OLATHE - OJC   SUNNY     65  39  38 N14G22    30.00R
LAWRENCE       SUNNY     67  43  41 N16       30.02R

$$

MOZ001>008-011>017-020>025-030>033-038>040-044>046-053-054-041800-
...NORTHERN AND CENTRAL MISSOURI...

CITY           SKY/WX    TMP DP  RH WIND       PRES   REMARKS
ST. JOSEPH     SUNNY     67  39  35 N18G26    30.01R
MOSBY          SUNNY     64  37  36 N15G23    29.99R
WARRENSBURG    SUNNY     66  39  37 NW13G22   29.95S
WHITEMAN AFB   MOSUNNY   66  43  43 N12G25    29.94R
CLINTON        SUNNY     66  46  48 N14G25    29.96R
SEDALIA        MOSUNNY   68  44  42 NW16G28   29.94R
WARSAW         NOT AVBL
CHILLICOTHE      N/A     66  41  40 N12G18    29.97R
KIRKSVILLE     MOSUNNY   61  39  44 N18G25    29.94R

$$

MOZ041-047>049-056>058-063>065-088>090-097-041800-
...EASTERN AND SOUTHERN MISSOURI...

CITY           SKY/WX    TMP DP  RH WIND       PRES   REMARKS
ST. LOUIS INTL MOSUNNY   67  44  43 N17G26    29.82R
SPIRIT OF STL  MOSUNNY   67  44  43 N16G25    29.82R
COLUMBIA       MOSUNNY   67  41  38 N18G31    29.89R
JEFFERSON CITY MOSUNNY   68  38  33 NW18G29   29.87R
ROLLA          MOSUNNY   65  46  50 N15G25    29.85R
OSAGE BEACH    MOSUNNY   66  43  42 N9G20     29.90R
SPRINGFIELD    SUNNY     69  41  36 N20       29.92R
BRANSON        SUNNY     68  37  32 NW22G29   29.91R
JOPLIN         SUNNY     70  43  37 N17G25    29.97R
WEST PLAINS    SUNNY     70  41  34 N17G30    29.86R

$$

IAZ060-094-KSZ022-034>040-054-083-096-NEZ052-066-093-041800-
...KANSAS...SOUTHEAST NEBRASKA AND IOWA...

CITY           SKY/WX    TMP DP  RH WIND       PRES   REMARKS
TOPEKA         SUNNY     67  37  33 NW16G29   30.03R
MANHATTAN      SUNNY     68  35  29 N10G21    30.07R
EMPORIA        SUNNY     68  35  29 N14G24    30.04R
CHANUTE        SUNNY     70  39  32 N16       30.01R
WICHITA        SUNNY     71  37  28 N17G24    30.07R
OMAHA          MOSUNNY   64  41  42 N16       30.05S
LINCOLN        SUNNY     66  36  32 N17G24    30.09R
FALLS CITY     SUNNY     65  40  39 N15G21    30.03R
LAMONI         SUNNY     61  41  47 N18G26    29.98R
DES MOINES     MOSUNNY   62  32  32 NW16G22   29.99R

$$





USA.gov is the U.S. government's official web portal to all federal, state and local government web resources and services.